Wind_Speed
37 37 37 37 37 36 37 38 38 38 38 38 39 40 41 43 45 46 47 46 41 38 36 32 29 30 32 34 35 35 35 35 37 40 41 43 43 42 43 43 43 42 43 44 44 42 38 38 39 40 40 39 39 42 48 56 62 65 64 63 63 59 59 59 52 56 55 38 32 37 46 67 74 64
38 37 37 37 37 37 37 38 38 38 38 38 39 40 41 42 44 46 48 48 43 39 38 34 31 30 31 33 35 34 34 35 36 39 41 41 41 41 42 43 42 41 41 43 44 43 40 38 38 40 41 39 39 39 43 51 58 63 65 66 66 63 64 65 61 61 55 39 36 40 46 61 69 68
39 38 37 37 37 37 38 38 38 37 37 38 39 40 41 41 43 44 47 48 45 41 39 35 32 31 31 32 33 33 33 34 35 37 40 40 39 41 42 42 41 40 38 38 39 40 39 38 37 38 40 40 39 38 41 48 56 63 66 67 67 65 67 68 67 69 59 42 38 42 48 57 64 69
40 39 37 38 38 38 38 38 37 37 37 38 39 40 41 41 42 43 45 48 46 42 39 36 33 32 32 31 32 33 32 33 35 37 39 39 39 41 41 40 39 37 35 33 35 36 37 38 38 37 38 39 39 39 41 45 53 63 67 67 66 66 68 69 69 74 66 49 41 41 46 54 62 71
41 40 39 39 39 38 38 37 37 37 37 37 39 40 41 41 41 42 43 47 47 43 39 36 34 32 32 30 30 32 32 32 35 37 38 39 39 40 40 38 36 35 34 34 33 35 36 37 38 37 38 39 40 40 41 43 48 59 66 68 68 66 67 68 70 75 73 62 50 40 41 49 58 69
41 40 40 40 39 37 37 37 37 37 36 37 38 39 40 41 41 41 42 45 47 45 40 37 34 32 32 30 29 31 33 33 35 37 38 39 39 39 38 37 35 34 35 36 35 35 36 37 38 38 38 38 39 39 40 42 44 52 60 65 68 68 67 66 69 77 81 77 65 49 42 44 52 63
41 40 40 40 39 37 37 37 37 36 35 36 38 39 39 40 40 40 41 43 45 47 43 38 35 33 31 30 29 30 32 33 35 37 38 39 40 39 38 36 35 35 36 37 38 37 37 37 38 39 39 38 39 40 41 42 43 48 55 61 66 68 67 65 66 75 85 86 77 66 58 51 47 51
40 40 40 39 39 38 38 38 36 35 35 36 38 39 39 40 40 40 40 41 43 46 45 40 36 34 31 30 29 31 32 33 36 38 39 40 40 38 37 37 37 36 37 38 39 40 40 40 39 39 40 40 40 41 42 44 45 48 54 60 63 65 66 65 63 70 80 85 83 79 77 69 56 47
40 39 38 39 39 38 38 37 36 34 34 35 37 38 38 39 40 39 39 40 42 45 46 42 37 35 32 30 29 31 33 34 36 38 39 41 41 38 37 38 37 36 37 38 40 41 42 43 42 40 41 41 41 41 42 44 46 49 53 58 60 61 63 64 63 64 70 77 81 82 80 77 72 61
39 38 38 39 39 38 37 36 35 34 33 35 36 37 38 38 39 39 38 39 41 43 45 43 39 36 33 31 30 31 33 35 37 39 41 41 40 39 39 39 38 36 36 38 40 42 43 45 45 43 41 41 42 42 42 44 46 48 51 54 57 59 61 62 61 60 63 68 74 77 76 74 75 74
38 37 37 39 38 37 36 35 35 33 33 34 35 36 37 37 38 38 38 39 41 43 43 42 40 37 34 32 31 31 33 35 37 40 41 41 40 40 42 42 40 36 36 38 40 42 44 45 46 46 44 43 43 43 44 44 45 48 51 52 56 58 59 60 59 58 59 62 67 69 69 70 71 74
38 37 36 38 37 35 35 34 34 32 32 33 34 35 36 37 37 38 37 38 40 42 42 41 40 37 34 31 31 32 33 35 37 38 40 41 40 40 42 43 42 39 37 39 41 43 44 45 45 46 46 45 44 44 45 45 45 48 50 51 55 58 59 59 57 56 57 58 62 63 63 65 66 68
38 36 35 36 36 34 34 33 32 31 32 33 34 34 34 36 36 37 37 38 40 41 41 39 39 37 33 30 31 32 32 34 37 39 40 42 41 41 42 43 41 39 38 40 41 41 42 42 41 42 43 43 44 45 45 45 45 46 49 51 54 57 58 58 56 56 56 56 58 60 60 62 63 64
37 34 34 35 34 33 33 32 31 30 31 32 33 33 33 35 36 36 37 38 39 40 40 39 38 37 33 30 31 32 32 34 37 40 41 42 41 42 44 44 40 37 38 40 41 38 37 38 37 36 37 38 41 45 45 45 45 46 48 50 54 56 58 58 56 55 56 56 56 58 59 60 61 62
35 33 33 33 33 32 31 30 29 29 29 31 32 32 33 34 35 37 39 39 39 40 40 39 38 36 33 30 31 32 32 35 38 40 41 41 41 42 45 46 41 36 36 41 43 41 38 38 37 35 35 34 37 42 44 45 44 46 48 49 53 57 57 58 57 55 56 55 54 56 57 58 58 58
33 31 31 32 31 30 30 29 28 28 28 30 31 31 31 32 33 36 38 39 40 40 40 39 38 36 34 32 31 33 35 37 38 40 40 40 42 43 45 46 41 35 34 40 46 45 42 41 38 35 33 33 34 38 42 45 45 45 48 49 52 56 58 57 57 56 56 54 53 53 54 55 55 55
31 30 30 30 29 28 28 27 26 26 27 28 29 29 29 30 32 35 36 37 38 39 40 40 38 36 35 34 34 35 37 38 39 40 40 41 42 43 45 44 39 34 36 41 47 47 44 42 38 33 31 32 33 35 39 44 46 45 47 49 52 55 58 58 57 57 55 53 52 51 51 53 54 55
30 28 28 28 28 27 27 25 25 25 26 27 27 27 28 29 31 33 33 34 35 36 37 39 37 36 36 36 36 36 37 38 38 40 41 41 42 44 45 42 37 35 37 41 48 49 44 40 37 32 30 33 34 35 36 42 46 46 46 49 51 55 58 58 57 57 55 53 51 49 49 52 54 56
28 26 26 26 27 26 24 23 24 24 25 26 25 25 26 28 29 30 31 32 33 33 35 36 35 35 34 35 35 35 36 36 38 40 42 42 43 44 44 41 36 36 38 38 46 50 43 38 36 34 33 36 36 36 36 40 45 46 46 48 51 54 58 58 57 56 55 52 50 49 49 50 53 54
26 25 25 26 25 23 22 22 23 23 24 24 23 23 25 26 27 27 28 29 30 31 32 32 33 33 34 35 35 35 36 37 39 42 43 42 43 44 43 39 36 38 38 35 43 49 42 36 37 36 36 37 36 37 37 39 44 46 46 47 50 54 57 58 57 56 54 51 49 48 49 50 51 52
25 24 24 24 23 21 20 21 21 22 23 22 22 22 23 24 24 24 25 26 27 29 30 30 31 33 34 36 36 36 37 38 39 42 42 40 41 43 41 38 37 38 35 32 41 47 40 33 34 36 35 34 33 34 35 38 43 45 45 46 49 53 56 57 56 55 53 50 48 48 49 49 48 49
24 23 24 23 20 19 19 19 20 21 22 21 20 20 21 21 21 22 22 22 24 25 26 27 29 31 32 34 35 35 35 36 37 39 40 38 40 41 40 38 39 37 30 29 39 44 36 28 27 31 31 29 27 30 33 36 41 44 45 46 48 51 55 56 56 54 52 49 48 48 48 47 47 47
23 23 23 21 18 18 18 18 19 20 20 19 19 19 19 19 19 20 20 20 21 22 23 23 24 25 28 29 31 31 32 33 34 36 37 37 39 40 38 38 41 38 27 28 36 37 31 26 25 28 30 25 19 25 31 34 39 43 44 46 48 51 54 56 55 54 52 48 48 49 47 46 46 46
23 23 21 19 17 17 17 17 18 19 18 17 17 18 18 17 17 18 19 19 20 20 21 21 21 22 24 25 27 28 29 31 32 33 35 36 37 39 37 38 42 38 27 27 33 30 25 24 24 25 30 25 15 20 27 31 36 40 42 45 48 50 53 55 55 53 51 49 49 49 47 45 45 45
23 22 19 17 16 16 15 16 17 16 16 16 16 16 16 17 16 17 18 19 20 21 21 21 21 21 22 23 24 26 27 29 30 31 33 34 36 37 36 38 41 35 24 24 31 29 25 24 23 22 27 25 15 16 23 29 33 36 39 43 47 50 53 55 54 53 50 49 49 49 46 44 44 44
22 20 18 17 16 15 15 15 15 14 14 14 14 15 15 16 16 17 18 19 20 21 21 21 21 21 21 21 22 23 25 27 28 30 31 33 34 35 35 38 40 34 25 21 26 29 27 23 22 22 22 20 14 14 19 25 29 32 37 42 45 49 52 54 54 52 50 49 49 47 45 43 43 44
20 18 17 16 15 14 14 14 13 12 12 12 13 14 14 15 16 17 18 19 20 21 22 22 22 22 22 22 22 22 23 25 27 29 31 32 33 34 35 38 39 35 28 23 21 23 22 18 20 23 20 15 12 12 15 20 25 30 36 40 43 47 51 53 53 51 49 49 47 45 44 44 44 44
18 18 17 15 14 13 13 12 11 11 11 11 12 13 13 14 15 16 17 18 20 20 21 22 23 23 24 24 24 24 25 26 27 29 30 31 32 33 35 38 39 35 30 27 23 18 16 15 18 18 13 9 8 9 11 16 21 27 33 38 42 46 49 51 52 50 49 48 47 45 44 44 43 44
18 17 16 14 13 13 12 11 10 10 9 10 10 11 12 14 15 15 16 18 19 20 21 22 22 23 24 25 26 27 27 27 28 28 29 29 29 31 33 37 39 36 31 29 27 20 14 15 15 9 4 4 3 1 5 10 16 23 30 36 40 44 48 50 50 50 49 47 45 44 43 42 42 42
18 17 15 13 12 12 11 10 9 9 8 8 9 10 11 12 13 14 15 17 18 19 20 21 22 23 24 25 27 27 28 28 28 28 28 27 26 27 29 33 37 36 33 30 29 24 17 12 9 5 3 5 4 3 4 7 13 20 27 33 38 43 47 49 48 48 48 46 43 42 41 41 41 40
17 16 14 12 12 12 10 9 8 8 7 7 8 9 11 11 12 13 15 16 18 18 20 21 22 23 24 25 25 26 27 28 28 29 29 28 27 26 25 28 31 33 32 30 29 28 21 9 4 5 6 4 1 6 7 6 8 14 21 29 37 43 45 46 47 46 45 43 42 41 40 40 40 39
17 15 13 12 12 11 9 9 8 7 6 6 7 8 10 11 11 13 14 16 18 19 20 22 22 22 22 23 24 25 26 26 27 28 29 28 28 26 24 25 27 28 29 26 26 29 25 10 3 4 4 5 7 9 11 9 7 11 17 25 34 40 41 42 44 44 42 41 40 40 39 39 38 38
16 14 13 13 12 10 9 9 8 5 5 5 6 8 9 10 11 12 15 17 18 20 20 20 21 21 21 22 22 23 24 25 26 27 28 28 27 26 24 24 26 27 28 24 21 24 25 15 3 2 6 9 9 10 13 12 10 11 16 23 30 34 36 38 40 39 38 39 38 37 37 37 37 37
16 14 13 12 11 10 10 9 7 5 4 4 6 7 9 10 11 12 15 17 18 19 20 20 21 21 21 21 22 22 22 24 24 26 27 28 27 26 24 22 22 24 27 25 20 19 21 18 9 4 10 11 11 12 11 10 10 11 13 19 25 28 31 34 35 34 34 35 35 35 36 36 36 36
15 13 13 12 11 11 10 8 6 5 4 4 5 7 8 9 11 13 14 16 17 18 20 21 21 21 21 22 22 22 23 23 23 24 25 25 25 26 25 23 21 22 24 25 23 20 17 16 13 5 7 10 12 12 8 6 10 13 12 16 22 24 27 30 31 31 32 33 33 34 35 36 36 36
15 13 13 13 11 11 10 8 6 4 3 4 5 7 8 9 11 13 14 15 16 17 18 20 21 21 22 22 23 23 23 23 23 23 23 23 23 23 24 23 22 22 22 23 24 22 17 13 12 8 3 8 10 11 9 7 10 13 12 14 17 18 21 26 29 30 33 34 34 35 34 34 36 36
14 13 13 13 12 11 10 8 6 4 3 4 5 6 8 9 11 13 13 14 15 16 17 19 20 21 21 22 23 23 24 24 24 24 23 23 22 21 21 22 22 22 23 23 22 22 18 12 8 5 0 5 6 9 11 9 8 10 12 14 16 16 17 23 26 28 31 33 33 33 33 33 34 35
14 14 13 12 11 11 10 8 6 4 4 4 4 6 8 10 11 13 14 14 15 17 17 19 20 21 21 21 22 22 23 23 24 24 24 23 22 21 20 21 21 21 22 21 20 19 18 11 5 2 2 5 8 11 13 13 11 11 12 15 17 16 18 22 24 25 29 31 31 32 33 32 33 33
13 13 13 13 12 11 10 8 6 5 4 3 4 6 8 9 11 13 14 15 16 17 18 19 20 21 21 22 22 22 23 23 23 23 24 24 24 23 22 21 20 19 18 17 16 15 15 11 6 4 6 9 11 13 14 14 12 9 10 14 15 12 11 17 20 22 26 29 30 30 31 30 30 31
13 13 13 13 13 12 11 8 7 6 4 3 4 6 7 9 11 12 14 15 16 17 18 19 20 20 21 21 22 22 23 23 23 23 24 24 25 25 24 23 21 19 16 15 13 12 11 9 8 7 7 9 11 11 11 12 11 8 7 12 15 11 7 10 15 18 21 25 28 30 29 27 26 27
13 13 13 12 12 12 11 9 7 7 5 3 4 6 7 9 11 12 13 14 15 17 18 19 19 20 20 21 21 21 22 22 23 23 23 23 24 24 24 24 22 19 17 15 14 12 12 12 12 10 9 9 8 6 6 7 9 10 9 10 13 11 9 10 14 14 15 18 24 28 28 24 21 23
15 14 14 13 13 13 12 10 8 7 6 4 4 6 8 9 10 12 13 15 15 16 17 18 18 19 20 20 21 21 21 22 22 22 22 22 22 22 23 23 23 22 20 18 17 17 16 16 15 12 10 9 7 4 5 4 5 9 11 11 14 15 12 12 15 16 15 16 18 22 25 26 24 23
15 14 14 15 14 14 13 11 9 8 6 5 5 6 8 9 11 12 14 15 16 16 17 17 18 18 19 19 20 20 21 21 22 22 21 22 22 22 22 23 24 24 23 22 21 19 17 15 13 12 9 7 6 4 5 5 5 8 10 11 15 19 18 15 16 18 18 17 15 15 19 24 28 28
14 14 14 15 15 14 13 12 10 9 7 6 6 7 8 10 11 12 14 15 16 16 17 17 18 19 19 20 20 20 20 20 21 21 22 22 22 22 22 22 22 22 21 21 21 19 17 13 11 11 9 6 4 4 4 4 5 7 9 9 11 16 21 21 19 19 19 19 18 18 17 19 23 28
14 14 14 15 15 14 14 13 11 10 8 7 8 8 9 11 12 13 14 15 16 17 17 18 18 19 19 20 20 20 20 20 20 20 21 21 22 22 22 22 21 20 19 19 19 18 18 16 14 12 10 6 4 3 2 3 4 6 9 11 11 12 17 21 21 21 21 21 21 22 22 20 21 24
Wind_Direction
270 272 275 278 280 282 284 285 286 287 288 289 292 294 296 298 299 302 303 305 310 313 312 312 302 287 279 276 275 274 276 279 282 287 291 293 294 294 293 291 289 287 286 285 284 282 280 275 268 265 265 264 258 252 245 238 233 233 232 230 232 232 223 222 226 224 222 219 208 205 209 214 218 223
269 271 274 277 280 283 284 283 284 286 287 289 291 293 295 297 299 302 303 305 309 313 313 314 308 292 278 274 273 275 278 281 286 290 292 294 295 295 295 293 292 290 286 282 280 280 278 276 271 265 264 264 260 256 249 241 235 234 234 231 232 234 227 224 223 220 218 214 207 210 214 218 222 225
268 269 271 275 279 281 281 282 283 284 286 288 290 292 294 296 299 301 302 304 309 311 313 315 311 297 282 275 274 275 279 283 287 290 292 294 296 296 296 295 292 289 286 282 278 278 277 276 274 267 263 262 262 259 251 242 236 234 234 232 232 233 229 227 223 219 218 212 204 211 219 223 227 228
269 268 269 272 276 278 279 280 282 283 284 287 289 291 294 295 298 300 301 303 307 310 312 314 312 300 285 278 276 277 279 284 288 290 292 295 296 298 297 294 290 289 290 287 281 278 276 276 275 270 264 260 259 259 253 244 236 233 234 232 231 231 229 228 223 217 218 214 204 206 215 223 229 232
270 269 268 270 273 275 277 278 280 281 282 285 288 291 293 295 298 299 300 303 306 309 312 313 312 301 287 279 279 280 281 284 288 290 293 296 297 299 298 294 291 292 295 293 288 282 277 276 275 272 267 260 256 256 254 247 238 233 233 232 230 229 228 228 223 216 216 217 211 206 212 219 227 235
269 270 269 270 272 274 276 276 277 279 281 284 288 290 293 295 297 299 300 302 305 308 312 313 312 303 288 279 278 282 283 284 288 290 293 296 297 298 299 297 296 295 294 293 290 286 280 276 275 272 269 263 256 255 253 250 243 236 234 231 230 229 228 228 223 216 218 221 217 213 215 219 225 234
268 270 271 271 272 272 274 274 275 277 280 284 287 290 292 295 297 299 300 302 305 307 310 313 311 304 291 281 277 281 285 286 288 290 293 296 297 299 301 302 301 296 293 291 289 287 283 278 275 272 269 264 258 254 252 250 245 239 235 231 229 229 228 228 224 219 221 226 225 223 225 226 225 229
267 270 271 271 270 271 272 272 273 276 279 283 286 289 292 294 297 299 300 303 305 305 308 312 312 306 296 285 280 284 287 287 288 290 293 295 296 301 304 303 302 298 293 290 286 284 282 279 276 272 269 265 259 254 250 249 246 240 235 230 228 228 227 228 226 222 224 230 231 231 233 235 233 229
265 269 272 272 270 270 271 271 272 275 279 283 286 289 292 295 296 298 301 303 303 303 305 310 311 308 301 291 285 290 291 287 287 290 292 295 298 302 305 303 303 300 295 290 285 282 280 279 278 274 270 266 260 255 250 249 247 241 236 231 228 227 226 227 228 225 224 228 231 233 235 237 238 234
263 268 271 272 271 270 271 270 271 274 278 282 286 289 292 295 297 299 302 303 302 301 304 307 310 309 305 296 290 293 293 288 287 290 291 295 300 305 306 305 305 302 296 292 287 283 280 278 277 276 272 268 262 256 251 248 246 242 237 232 228 226 225 226 227 226 225 226 228 231 233 234 237 237
260 265 269 272 271 270 269 269 270 273 278 282 285 289 292 294 297 300 302 302 300 301 303 305 309 310 306 299 293 294 293 290 290 292 292 295 302 306 307 307 308 305 298 293 289 285 282 279 277 275 273 270 263 257 252 247 245 242 236 231 228 226 225 225 226 226 225 225 226 228 230 231 234 236
258 262 267 271 271 270 268 267 269 273 278 282 285 289 292 295 298 300 301 301 300 300 302 304 308 309 306 300 296 294 293 290 289 293 297 299 303 307 307 308 310 307 300 294 291 288 285 282 280 277 273 269 264 258 252 247 244 241 236 231 228 225 224 224 225 225 224 225 225 226 227 227 230 232
256 259 264 269 270 268 266 266 269 273 278 282 286 289 292 295 298 299 299 299 299 300 302 305 309 310 307 302 298 295 295 294 292 295 301 303 305 308 309 309 310 307 301 296 292 291 289 286 284 280 275 270 263 258 252 245 243 241 236 231 227 224 223 223 224 224 224 224 223 223 224 224 227 230
253 257 262 266 267 265 264 265 268 272 278 282 286 289 293 295 297 298 299 299 300 302 304 307 310 311 308 304 301 298 299 300 297 299 303 305 308 311 311 310 311 307 302 297 292 291 292 290 288 283 279 274 264 257 251 245 241 239 236 231 226 224 222 222 222 223 223 223 221 221 222 222 225 229
252 256 261 263 264 263 262 263 267 272 278 282 286 290 295 297 300 301 301 302 304 305 306 309 312 312 309 306 305 305 305 303 301 302 305 307 312 314 312 311 312 310 305 296 290 289 290 291 292 288 282 278 270 259 251 244 240 237 234 230 225 223 221 220 221 221 222 223 222 220 220 220 222 227
250 254 259 262 261 260 260 262 267 273 278 282 286 291 295 297 299 300 302 304 306 306 308 312 314 313 310 308 309 311 309 305 302 303 306 311 315 314 311 311 312 311 308 299 291 289 291 292 292 290 284 279 274 265 253 244 239 235 233 230 224 221 220 219 219 220 221 222 221 220 219 219 219 222
248 253 257 259 259 257 258 262 267 274 277 281 286 291 294 297 297 298 301 303 305 306 309 312 314 313 311 311 312 312 310 306 303 304 308 313 315 313 310 311 312 313 313 306 297 294 297 296 290 288 286 279 273 267 256 245 238 234 231 228 224 220 218 217 217 218 220 221 220 220 219 218 218 217
246 252 255 255 255 255 257 262 269 273 277 282 287 291 294 296 297 299 303 304 303 305 308 310 312 312 310 310 311 310 308 306 305 306 311 315 316 313 312 313 314 314 316 312 301 298 301 300 291 286 286 278 268 262 255 245 238 233 229 227 223 219 217 216 216 217 219 219 219 219 219 218 219 218
245 250 251 251 252 252 256 263 268 273 278 283 287 291 294 295 299 303 305 304 305 307 308 308 309 308 307 306 308 309 308 308 309 311 313 316 315 313 313 314 314 315 319 314 301 299 304 304 294 286 284 279 266 256 251 243 237 232 228 225 222 218 215 215 215 215 217 217 217 218 218 218 220 221
245 247 247 248 249 251 256 263 268 274 279 283 287 291 294 298 302 304 305 306 308 309 309 308 307 307 307 308 312 314 314 314 314 313 313 314 313 312 314 317 317 319 324 314 297 297 305 305 295 287 286 281 266 251 245 240 235 230 227 224 220 217 214 213 213 214 216 216 215 216 217 218 220 222
243 244 244 245 246 249 256 262 269 275 279 283 289 293 296 300 303 305 307 310 312 311 311 310 310 310 312 314 315 316 315 313 311 310 310 311 312 314 317 320 321 325 327 310 295 299 305 301 295 293 289 280 264 247 240 237 233 229 225 222 219 215 212 212 212 213 214 214 212 214 217 218 219 220
241 241 241 242 242 248 255 261 269 274 279 286 292 295 299 302 305 308 311 314 316 315 315 314 313 314 314 313 313 311 309 307 305 305 309 313 315 319 321 323 327 331 327 304 297 305 310 303 302 305 296 280 261 245 237 233 230 227 223 220 217 213 210 210 211 211 212 211 211 213 216 217 218 219
238 238 238 239 241 247 254 262 268 273 279 288 294 297 301 305 307 312 318 321 321 319 317 315 314 313 310 308 308 307 306 305 306 308 313 316 319 322 324 326 331 334 325 302 302 314 317 307 305 309 306 294 262 240 236 231 227 226 221 217 214 211 208 208 209 210 210 209 209 212 215 216 217 217
235 236 236 236 240 247 255 261 267 274 282 290 294 297 302 306 311 319 324 325 323 321 320 319 316 314 313 312 312 312 311 311 312 314 317 320 322 324 326 329 334 336 326 304 306 318 325 316 306 302 304 302 270 233 231 228 225 225 220 215 212 208 206 206 206 207 208 207 208 212 214 215 216 216
231 232 232 234 239 246 254 259 267 277 284 289 294 299 304 310 318 324 326 324 324 325 324 323 322 322 323 322 321 320 319 318 318 320 321 324 326 327 329 332 335 337 332 313 308 313 319 318 310 298 295 296 276 232 225 224 223 225 220 214 210 207 205 205 204 205 206 205 208 211 212 213 215 215
228 229 229 233 239 244 251 258 267 277 283 290 297 301 308 316 323 326 325 324 324 324 325 328 331 331 329 327 325 325 325 324 325 327 328 329 330 329 330 333 335 337 336 326 314 309 309 310 308 302 296 288 266 231 221 220 221 224 221 213 208 205 204 203 202 203 204 205 208 210 210 212 213 213
224 225 226 232 239 243 251 259 267 277 284 292 300 305 312 321 325 325 324 323 322 323 328 334 337 335 331 330 330 330 331 332 334 334 335 335 334 332 331 334 339 341 341 338 327 311 306 309 309 304 296 278 250 226 217 217 220 221 218 211 205 203 202 201 201 201 202 204 207 208 208 210 211 210
221 222 225 231 236 242 251 259 266 276 285 293 300 309 318 323 325 324 323 322 323 327 333 338 338 335 334 335 336 337 339 341 342 342 342 341 338 335 334 337 342 346 347 350 348 329 314 322 325 313 296 271 245 224 215 215 218 220 216 209 204 201 199 199 199 200 202 204 206 206 207 209 210 209
218 219 223 229 234 241 249 257 266 275 285 294 302 313 321 324 324 323 322 323 327 333 338 340 339 337 338 340 341 342 343 344 344 346 347 346 341 337 336 339 344 349 350 353 358 354 336 338 352 1 21 37 37 186 211 211 214 218 214 206 201 198 197 197 197 198 202 205 205 205 207 209 210 210
216 218 222 225 231 240 246 252 264 272 282 295 306 316 322 324 323 324 326 330 334 337 339 341 341 341 343 344 343 343 344 343 344 347 350 349 345 340 339 342 347 350 350 351 359 2 350 339 357 20 4 1 32 112 165 191 208 216 212 203 197 195 194 196 196 198 201 204 204 205 206 208 210 210
215 218 220 222 228 236 241 249 259 267 279 297 310 318 323 323 324 329 334 336 338 341 343 345 345 344 345 345 344 344 345 344 345 347 351 352 349 344 343 346 350 352 350 349 355 360 357 345 339 343 336 340 83 133 136 151 194 208 206 200 195 192 192 194 195 197 200 202 203 205 207 207 209 208
216 217 217 220 225 231 237 245 253 263 278 299 315 321 322 323 328 335 341 342 344 347 349 349 347 345 345 345 345 345 346 346 347 348 351 353 352 348 345 347 352 356 355 351 351 355 358 357 288 317 20 100 120 119 119 124 153 184 193 196 193 190 191 194 196 196 198 200 202 204 206 206 207 208
215 215 215 219 222 226 234 241 248 261 280 302 318 321 320 325 333 341 346 348 349 350 350 349 347 346 346 346 347 348 348 348 350 350 352 354 354 352 348 347 352 359 2 1 355 353 359 7 15 133 119 126 127 117 117 119 123 147 176 188 189 189 190 193 196 196 195 198 201 202 204 206 206 206
215 213 215 218 220 223 232 238 243 258 279 305 319 319 320 329 339 347 351 351 349 347 348 348 348 348 350 350 351 351 351 352 353 354 354 355 354 353 353 352 354 359 4 8 7 359 360 6 16 102 129 129 124 112 105 110 124 140 166 177 180 185 190 192 194 195 194 197 200 201 203 205 205 204
213 211 213 216 218 223 230 235 239 254 282 309 316 318 323 335 344 350 352 350 347 345 345 346 346 348 351 353 354 355 355 356 357 357 357 357 356 355 356 356 358 360 4 10 15 12 7 4 2 24 120 134 134 124 110 123 144 149 165 177 175 179 185 188 190 191 192 195 199 201 202 204 203 202
211 210 211 213 217 223 229 232 235 249 282 305 312 319 331 341 347 349 350 347 345 343 342 343 345 347 349 351 354 356 357 358 359 359 359 359 0 1 360 359 1 2 2 9 16 15 11 6 358 1 93 142 146 138 131 136 139 135 146 171 177 177 182 186 187 190 193 195 198 200 202 203 203 202
210 211 212 212 217 223 227 231 235 243 271 295 310 325 339 346 347 346 346 344 341 340 341 343 344 347 349 350 351 354 356 358 360 1 1 1 3 4 4 4 5 3 1 5 11 12 11 11 1 347 263 174 175 158 144 140 145 143 147 163 174 179 187 189 188 191 197 199 199 200 202 202 202 202
208 209 210 212 219 225 227 229 233 240 260 289 316 333 343 348 347 344 342 340 339 339 342 344 344 346 348 349 350 352 354 357 359 1 1 2 4 6 8 9 9 8 4 1 2 5 7 11 21 31 154 170 175 170 155 139 139 153 167 180 187 192 201 201 195 194 197 198 199 201 202 202 203 202
211 209 209 212 218 223 226 227 231 241 259 290 324 339 345 347 346 342 338 338 338 339 342 343 343 345 347 348 349 351 352 355 358 359 1 3 5 7 10 12 12 13 10 1 354 356 0 9 40 90 121 130 133 142 148 144 141 150 171 182 184 187 204 208 203 200 201 201 200 202 203 203 203 203
211 210 211 213 218 223 225 226 232 245 262 293 325 338 344 345 343 340 337 337 338 340 341 342 342 344 345 347 348 350 351 353 356 358 359 2 4 6 8 10 11 13 14 8 360 354 359 17 48 74 97 111 112 116 130 143 155 165 164 162 161 158 172 198 201 201 203 203 204 203 201 199 201 203
210 211 212 215 220 224 226 227 234 248 265 293 320 333 337 340 340 337 335 336 338 339 340 340 340 342 343 345 347 349 350 352 355 357 358 0 2 4 6 8 9 10 13 16 14 10 13 26 37 47 64 83 96 112 128 141 162 176 171 158 159 164 174 187 194 198 202 207 209 206 198 191 193 200
214 212 210 212 218 223 227 230 236 247 263 284 308 323 329 332 336 336 334 335 337 338 338 338 339 341 343 344 346 347 348 350 352 355 357 359 1 3 4 5 7 9 12 16 18 19 21 25 25 29 45 58 65 106 158 177 186 183 176 167 171 181 189 189 188 191 197 205 211 209 198 187 184 193
219 216 213 213 217 223 227 231 236 244 259 278 295 312 320 324 331 334 333 333 334 335 336 336 338 340 342 343 345 346 347 349 350 351 354 357 358 1 3 4 6 8 10 12 14 16 18 20 19 20 29 37 46 88 151 190 205 191 181 172 171 177 185 191 192 190 191 195 204 211 208 197 189 188
220 220 218 217 218 223 227 231 236 243 255 271 286 301 313 319 324 329 330 330 330 331 333 335 337 339 340 342 344 345 346 347 348 349 352 355 356 358 1 2 3 5 6 8 9 7 7 11 17 18 15 11 25 65 114 170 197 195 192 190 178 173 177 186 195 197 196 198 199 200 207 212 205 196
220 219 221 220 220 223 229 233 237 243 251 266 281 294 305 313 318 322 325 326 326 328 330 333 335 336 338 339 341 343 344 345 347 348 350 352 353 355 356 357 357 359 1 3 4 3 2 4 7 5 2 358 358 18 89 156 176 189 198 203 200 186 181 187 196 201 203 208 207 197 196 207 211 204
Height
2882 2881 2881 2880 2879 2879 2877 2875 2874 2873 2872 2870 2868 2865 2863 2859 2855 2853 2850 2848 2851 2850 2847 2845 2842 2838 2835 2832 2829 2828 2826 2823 2820 2817 2815 2812 2810 2809 2806 2803 2801 2798 2794 2791 2789 2787 2786 2784 2782 2781 2781 2781 2782 2783 2783 2785 2787 2789 2791 2794 2795 2798 2801 2803 2805 2809 2814 2817 2821 2824 2829 2835 2839 2841
2876 2876 2876 2875 2874 2873 2872 2870 2869 2868 2867 2865 2863 2861 2859 2856 2852 2849 2844 2841 2844 2844 2841 2838 2836 2833 2830 2827 2825 2823 2821 2818 2815 2812 2810 2807 2805 2803 2800 2797 2794 2791 2788 2785 2783 2781 2779 2778 2776 2775 2774 2774 2775 2776 2777 2778 2780 2781 2783 2786 2789 2791 2795 2798 2800 2806 2810 2812 2815 2820 2825 2831 2833 2835
2871 2870 2870 2869 2869 2868 2866 2865 2864 2863 2862 2860 2858 2856 2854 2851 2848 2845 2840 2835 2837 2838 2835 2832 2830 2827 2825 2823 2820 2818 2816 2813 2810 2807 2805 2803 2801 2798 2795 2792 2788 2785 2782 2780 2777 2775 2773 2772 2770 2769 2768 2768 2768 2769 2770 2770 2772 2774 2776 2780 2783 2785 2788 2792 2796 2802 2806 2807 2810 2815 2820 2824 2826 2828
2865 2865 2864 2864 2863 2862 2860 2859 2859 2858 2857 2855 2853 2851 2849 2846 2843 2841 2836 2831 2831 2832 2830 2827 2825 2822 2819 2817 2815 2812 2810 2808 2805 2802 2800 2798 2796 2793 2789 2786 2783 2780 2777 2774 2771 2769 2768 2766 2764 2763 2762 2762 2762 2762 2763 2763 2765 2766 2769 2773 2776 2778 2781 2785 2789 2796 2799 2800 2804 2809 2813 2817 2819 2821
2859 2859 2859 2858 2857 2856 2855 2854 2853 2853 2852 2850 2848 2846 2844 2842 2839 2836 2832 2827 2824 2826 2825 2822 2820 2817 2814 2812 2810 2806 2804 2803 2800 2797 2795 2793 2790 2788 2785 2781 2778 2774 2771 2768 2766 2764 2762 2761 2759 2758 2756 2756 2756 2756 2756 2756 2757 2758 2761 2765 2769 2772 2775 2778 2782 2788 2792 2793 2797 2802 2806 2811 2814 2816
2853 2853 2853 2853 2852 2851 2849 2849 2848 2847 2846 2844 2843 2841 2839 2837 2834 2831 2827 2823 2819 2818 2819 2817 2815 2813 2809 2807 2806 2802 2799 2798 2795 2792 2790 2788 2785 2783 2780 2776 2772 2769 2765 2762 2761 2758 2757 2755 2753 2752 2751 2750 2750 2750 2750 2750 2750 2751 2753 2756 2761 2765 2768 2771 2775 2781 2784 2785 2789 2794 2798 2804 2810 2813
2847 2847 2848 2847 2846 2845 2844 2843 2843 2842 2841 2839 2837 2836 2834 2832 2830 2827 2823 2819 2814 2811 2811 2812 2810 2807 2804 2801 2800 2797 2793 2792 2789 2787 2785 2782 2780 2777 2774 2770 2766 2764 2761 2757 2755 2753 2751 2749 2748 2746 2745 2744 2743 2743 2744 2744 2744 2744 2745 2748 2753 2758 2763 2766 2771 2776 2777 2778 2783 2787 2790 2796 2803 2808
2842 2842 2842 2842 2841 2840 2838 2838 2838 2837 2835 2834 2833 2831 2830 2827 2825 2822 2818 2814 2810 2806 2804 2806 2805 2801 2798 2796 2794 2791 2788 2786 2784 2781 2779 2777 2774 2772 2768 2764 2761 2758 2755 2752 2750 2747 2745 2743 2741 2740 2739 2738 2737 2737 2737 2737 2738 2738 2739 2742 2747 2752 2758 2762 2766 2771 2772 2773 2777 2781 2784 2789 2795 2801
2836 2836 2837 2836 2835 2834 2833 2833 2833 2832 2830 2829 2828 2826 2825 2823 2820 2817 2814 2810 2807 2802 2799 2799 2799 2796 2792 2790 2788 2786 2783 2781 2778 2776 2774 2771 2768 2767 2763 2758 2755 2752 2749 2747 2744 2741 2739 2736 2735 2734 2733 2732 2731 2731 2731 2731 2732 2732 2734 2737 2742 2747 2752 2756 2760 2765 2768 2769 2771 2774 2779 2784 2789 2794
2830 2831 2831 2830 2830 2829 2828 2828 2828 2827 2826 2824 2823 2822 2820 2818 2815 2812 2810 2806 2802 2799 2796 2793 2792 2790 2787 2784 2783 2781 2778 2775 2773 2770 2769 2766 2763 2760 2757 2753 2750 2747 2744 2740 2737 2734 2732 2730 2729 2727 2726 2726 2725 2724 2724 2725 2726 2726 2728 2732 2736 2740 2745 2749 2754 2758 2762 2765 2766 2768 2773 2779 2784 2788
2824 2825 2825 2825 2824 2824 2823 2823 2823 2822 2821 2820 2818 2817 2815 2813 2810 2808 2805 2802 2798 2795 2792 2789 2787 2784 2782 2779 2778 2776 2773 2770 2768 2765 2762 2760 2758 2754 2750 2746 2744 2742 2738 2735 2731 2728 2726 2724 2722 2720 2719 2719 2718 2718 2718 2718 2719 2720 2722 2726 2730 2734 2739 2744 2748 2752 2756 2759 2761 2764 2769 2775 2780 2784
2818 2819 2820 2819 2819 2819 2818 2818 2818 2817 2817 2815 2814 2812 2810 2808 2806 2803 2800 2798 2795 2791 2788 2785 2782 2779 2777 2775 2773 2771 2769 2766 2764 2761 2757 2754 2752 2749 2744 2740 2738 2735 2732 2728 2725 2722 2719 2717 2715 2713 2712 2712 2711 2711 2711 2711 2713 2714 2717 2721 2725 2729 2734 2738 2742 2747 2750 2753 2757 2761 2766 2771 2776 2780
2812 2813 2814 2814 2814 2814 2813 2813 2813 2813 2812 2811 2809 2808 2806 2803 2801 2799 2796 2794 2791 2787 2784 2781 2778 2774 2772 2771 2768 2766 2764 2761 2758 2755 2751 2748 2746 2743 2738 2735 2733 2729 2725 2721 2718 2716 2712 2709 2708 2706 2704 2704 2703 2703 2703 2704 2706 2708 2711 2714 2718 2723 2728 2732 2737 2742 2745 2748 2752 2757 2762 2768 2772 2776
2806 2808 2808 2809 2809 2809 2809 2809 2809 2808 2807 2806 2804 2803 2801 2799 2797 2794 2792 2790 2786 2782 2779 2776 2773 2769 2767 2766 2763 2761 2759 2756 2752 2750 2747 2744 2741 2737 2732 2729 2729 2725 2720 2714 2711 2709 2707 2703 2701 2700 2698 2697 2696 2695 2696 2698 2699 2701 2704 2708 2712 2717 2722 2727 2731 2736 2740 2744 2748 2753 2759 2764 2768 2771
2801 2802 2803 2803 2804 2804 2804 2804 2804 2804 2803 2802 2800 2798 2797 2795 2792 2789 2786 2783 2781 2777 2774 2771 2768 2764 2762 2761 2758 2756 2754 2751 2748 2745 2743 2739 2736 2732 2726 2722 2722 2720 2716 2709 2704 2703 2701 2698 2695 2694 2692 2691 2689 2688 2689 2691 2692 2694 2697 2701 2705 2711 2716 2722 2726 2731 2735 2740 2745 2750 2755 2760 2765 2768
2796 2797 2798 2798 2799 2800 2800 2800 2800 2800 2799 2798 2796 2795 2793 2791 2788 2785 2782 2778 2775 2772 2768 2765 2763 2760 2757 2756 2754 2752 2749 2747 2743 2741 2738 2735 2731 2727 2722 2717 2716 2715 2711 2704 2697 2695 2694 2692 2689 2688 2686 2685 2683 2682 2682 2684 2685 2687 2690 2694 2699 2704 2710 2716 2721 2726 2730 2735 2741 2747 2751 2756 2761 2765
2791 2792 2793 2794 2795 2795 2795 2796 2796 2796 2795 2794 2793 2792 2790 2788 2785 2782 2779 2775 2771 2767 2763 2760 2758 2756 2753 2751 2750 2749 2745 2742 2739 2735 2733 2730 2726 2722 2718 2714 2712 2709 2705 2698 2690 2686 2687 2685 2681 2681 2680 2678 2676 2675 2675 2677 2678 2680 2683 2687 2692 2697 2703 2710 2716 2721 2726 2731 2736 2742 2747 2751 2756 2761
2786 2787 2788 2789 2790 2791 2791 2792 2792 2792 2791 2791 2790 2789 2787 2784 2782 2779 2776 2772 2768 2764 2760 2756 2754 2753 2750 2748 2746 2745 2742 2738 2735 2731 2727 2725 2722 2717 2713 2709 2707 2704 2700 2692 2683 2677 2678 2677 2674 2674 2674 2670 2668 2668 2668 2669 2671 2674 2677 2680 2685 2691 2697 2704 2711 2716 2722 2727 2732 2737 2742 2746 2751 2756
2782 2783 2784 2785 2786 2787 2788 2788 2788 2788 2788 2787 2787 2786 2783 2781 2778 2775 2772 2769 2765 2761 2758 2755 2752 2750 2748 2746 2743 2742 2738 2734 2731 2726 2723 2721 2717 2712 2708 2705 2703 2699 2695 2688 2677 2669 2670 2671 2667 2666 2666 2662 2661 2661 2661 2662 2665 2667 2671 2674 2679 2685 2691 2698 2705 2712 2717 2723 2728 2733 2737 2742 2746 2751
2777 2779 2780 2781 2782 2783 2784 2784 2784 2784 2784 2784 2784 2782 2780 2777 2775 2772 2769 2765 2762 2759 2756 2753 2750 2747 2745 2743 2740 2737 2733 2730 2726 2722 2719 2718 2714 2708 2704 2701 2698 2694 2689 2683 2672 2663 2664 2665 2660 2657 2657 2654 2652 2654 2655 2656 2658 2661 2665 2669 2674 2679 2685 2692 2700 2707 2713 2719 2724 2729 2733 2738 2742 2747
2773 2775 2776 2777 2778 2780 2780 2780 2780 2780 2781 2781 2780 2778 2776 2774 2772 2769 2766 2763 2760 2757 2754 2750 2747 2745 2742 2739 2736 2734 2731 2727 2723 2719 2717 2715 2711 2704 2700 2696 2692 2688 2683 2676 2666 2659 2660 2659 2653 2649 2649 2646 2644 2646 2648 2649 2652 2655 2660 2664 2669 2675 2681 2687 2694 2701 2708 2715 2720 2725 2729 2734 2739 2743
2769 2771 2772 2774 2775 2776 2776 2776 2777 2777 2777 2777 2776 2775 2773 2771 2769 2766 2764 2761 2758 2755 2752 2749 2746 2743 2739 2737 2734 2732 2729 2726 2722 2718 2714 2711 2706 2700 2696 2691 2686 2682 2678 2671 2663 2657 2656 2654 2649 2644 2641 2638 2638 2640 2642 2644 2646 2650 2654 2659 2664 2671 2677 2684 2690 2696 2703 2710 2716 2721 2726 2731 2735 2739
2766 2767 2769 2770 2772 2772 2772 2773 2774 2774 2774 2774 2773 2771 2770 2768 2766 2764 2761 2758 2756 2753 2750 2748 2745 2742 2739 2736 2733 2730 2727 2723 2720 2715 2711 2707 2702 2697 2692 2687 2681 2677 2673 2667 2660 2655 2652 2650 2647 2641 2636 2634 2634 2635 2636 2639 2642 2645 2649 2654 2659 2666 2673 2680 2687 2693 2700 2707 2713 2717 2722 2727 2731 2735
2762 2764 2766 2767 2768 2769 2769 2770 2771 2771 2771 2770 2770 2768 2767 2765 2763 2760 2758 2755 2753 2751 2749 2746 2744 2741 2738 2734 2731 2728 2724 2720 2716 2712 2708 2704 2699 2693 2689 2684 2679 2674 2669 2663 2656 2653 2650 2647 2644 2640 2635 2631 2631 2632 2633 2635 2638 2641 2645 2650 2656 2662 2669 2677 2684 2691 2697 2704 2710 2714 2719 2724 2728 2732
2759 2761 2763 2764 2765 2766 2767 2768 2768 2768 2768 2768 2767 2765 2764 2762 2760 2757 2755 2753 2751 2749 2747 2744 2742 2739 2736 2732 2729 2725 2722 2718 2714 2709 2705 2701 2696 2691 2686 2681 2677 2672 2668 2661 2654 2650 2648 2644 2641 2638 2634 2631 2630 2630 2630 2632 2636 2639 2643 2647 2653 2659 2665 2673 2681 2689 2695 2702 2707 2712 2716 2721 2726 2730
2757 2758 2760 2761 2762 2764 2765 2765 2765 2765 2765 2765 2764 2762 2761 2758 2756 2754 2753 2751 2749 2747 2745 2742 2739 2737 2734 2731 2728 2724 2720 2716 2711 2707 2703 2698 2693 2689 2684 2679 2674 2669 2665 2660 2653 2648 2645 2642 2638 2635 2632 2630 2628 2628 2629 2631 2634 2637 2640 2644 2649 2655 2662 2670 2678 2685 2693 2699 2705 2710 2715 2719 2724 2728
2754 2756 2757 2758 2760 2761 2762 2763 2763 2763 2763 2762 2761 2759 2758 2755 2753 2752 2750 2749 2747 2745 2742 2739 2737 2734 2732 2729 2726 2723 2719 2714 2709 2705 2700 2696 2691 2687 2682 2677 2672 2666 2661 2657 2652 2646 2642 2640 2636 2633 2631 2629 2628 2628 2628 2630 2632 2635 2638 2642 2647 2653 2659 2666 2674 2682 2689 2696 2702 2708 2712 2716 2720 2724
2752 2753 2755 2756 2758 2759 2760 2760 2760 2761 2760 2760 2758 2757 2755 2753 2752 2750 2749 2747 2745 2743 2740 2737 2735 2732 2729 2726 2723 2720 2716 2712 2707 2703 2698 2694 2689 2684 2679 2674 2670 2664 2659 2655 2651 2646 2642 2639 2636 2632 2630 2629 2629 2628 2628 2629 2631 2634 2636 2640 2645 2651 2657 2664 2671 2679 2685 2691 2698 2703 2708 2712 2717 2721
2749 2751 2752 2754 2755 2757 2757 2758 2758 2758 2758 2757 2756 2755 2753 2751 2750 2749 2748 2746 2743 2741 2738 2736 2734 2730 2727 2724 2720 2717 2713 2709 2706 2702 2698 2694 2689 2684 2679 2673 2668 2663 2659 2655 2651 2647 2644 2641 2638 2635 2633 2632 2631 2630 2630 2630 2632 2633 2636 2639 2645 2651 2657 2663 2669 2675 2681 2687 2693 2700 2705 2710 2715 2719
2747 2749 2750 2752 2753 2754 2755 2756 2756 2756 2756 2755 2754 2753 2751 2750 2749 2748 2746 2744 2741 2739 2737 2735 2732 2729 2725 2722 2718 2715 2712 2708 2705 2701 2697 2693 2689 2685 2681 2675 2669 2663 2658 2655 2652 2648 2645 2643 2641 2638 2636 2635 2634 2633 2632 2632 2633 2634 2637 2641 2646 2651 2656 2662 2669 2674 2679 2685 2691 2698 2703 2707 2712 2716
2745 2747 2749 2750 2752 2752 2753 2754 2754 2754 2754 2753 2752 2751 2750 2749 2748 2746 2744 2742 2740 2738 2736 2733 2730 2727 2724 2721 2718 2714 2711 2707 2703 2699 2696 2692 2688 2685 2681 2677 2672 2666 2660 2655 2652 2649 2646 2644 2643 2640 2638 2637 2637 2635 2635 2635 2635 2637 2640 2644 2648 2652 2658 2664 2670 2675 2680 2685 2690 2695 2700 2704 2708 2713
2744 2745 2747 2748 2750 2751 2751 2752 2752 2752 2752 2751 2750 2749 2749 2748 2747 2745 2743 2741 2739 2736 2734 2732 2730 2727 2724 2721 2718 2714 2710 2707 2703 2699 2695 2692 2688 2684 2681 2677 2674 2669 2663 2658 2654 2650 2647 2646 2644 2642 2641 2641 2640 2639 2639 2639 2640 2641 2643 2647 2651 2655 2660 2665 2671 2676 2681 2685 2690 2694 2698 2703 2707 2712
2742 2744 2746 2747 2748 2749 2750 2750 2751 2750 2750 2750 2749 2748 2748 2746 2745 2743 2741 2739 2737 2735 2733 2732 2729 2727 2724 2721 2718 2714 2710 2707 2703 2699 2696 2692 2688 2685 2681 2677 2673 2670 2665 2661 2657 2653 2650 2648 2647 2646 2645 2644 2643 2643 2643 2644 2644 2646 2647 2650 2654 2657 2661 2667 2672 2677 2681 2685 2690 2694 2698 2703 2707 2712
2740 2742 2744 2745 2746 2747 2748 2749 2749 2749 2748 2748 2747 2747 2746 2745 2743 2741 2739 2737 2736 2734 2733 2731 2729 2727 2723 2720 2717 2714 2711 2707 2703 2699 2696 2692 2688 2685 2682 2678 2675 2671 2667 2663 2660 2656 2654 2652 2651 2650 2649 2647 2647 2647 2647 2648 2649 2650 2652 2654 2657 2660 2664 2669 2673 2678 2682 2686 2690 2694 2698 2702 2706 2711
2739 2741 2742 2744 2745 2746 2747 2747 2747 2747 2747 2746 2746 2745 2745 2743 2741 2740 2738 2737 2735 2734 2732 2730 2728 2726 2723 2720 2717 2713 2710 2707 2703 2700 2697 2693 2690 2686 2682 2679 2676 2673 2669 2666 2662 2659 2657 2655 2654 2654 2654 2653 2651 2651 2651 2652 2653 2654 2656 2658 2661 2663 2666 2670 2674 2678 2682 2686 2690 2694 2698 2702 2706 2711
2738 2740 2741 2742 2744 2744 2745 2745 2745 2745 2745 2745 2745 2744 2743 2741 2740 2739 2737 2736 2735 2733 2732 2730 2728 2725 2722 2719 2716 2713 2710 2707 2704 2701 2698 2694 2691 2687 2684 2680 2677 2674 2671 2668 2665 2662 2660 2658 2657 2656 2657 2657 2656 2655 2655 2656 2657 2658 2660 2662 2664 2667 2669 2671 2674 2678 2681 2684 2688 2693 2697 2701 2706 2710
2737 2738 2740 2741 2742 2743 2743 2744 2744 2744 2744 2744 2743 2742 2741 2740 2739 2738 2737 2736 2734 2733 2731 2729 2727 2724 2722 2719 2715 2713 2710 2707 2704 2701 2698 2695 2692 2689 2685 2682 2678 2675 2672 2670 2667 2665 2664 2662 2660 2659 2659 2659 2659 2659 2659 2660 2660 2662 2664 2666 2667 2669 2671 2673 2675 2678 2681 2684 2688 2692 2696 2701 2705 2709
2735 2737 2738 2740 2740 2741 2742 2742 2742 2742 2742 2742 2742 2741 2740 2739 2738 2737 2736 2735 2734 2732 2730 2728 2726 2724 2721 2719 2716 2713 2710 2707 2704 2701 2698 2695 2692 2689 2686 2683 2680 2677 2674 2672 2670 2668 2667 2665 2663 2662 2661 2661 2661 2661 2662 2663 2664 2665 2667 2669 2670 2672 2673 2675 2677 2679 2681 2684 2688 2691 2695 2699 2703 2707
2734 2736 2737 2738 2739 2740 2740 2741 2741 2741 2741 2741 2740 2739 2739 2738 2737 2736 2735 2734 2733 2731 2729 2727 2725 2723 2720 2718 2715 2713 2710 2707 2704 2701 2698 2695 2692 2690 2687 2684 2682 2679 2677 2675 2673 2671 2669 2667 2665 2664 2663 2663 2663 2663 2664 2666 2667 2668 2669 2670 2672 2674 2675 2677 2679 2681 2683 2685 2688 2691 2694 2698 2702 2705
2733 2734 2735 2736 2737 2738 2739 2739 2740 2740 2739 2739 2739 2738 2738 2737 2736 2736 2735 2733 2732 2730 2728 2726 2724 2722 2720 2718 2715 2712 2710 2707 2704 2701 2698 2696 2693 2690 2688 2685 2683 2681 2679 2677 2674 2672 2671 2669 2667 2666 2665 2664 2664 2665 2666 2668 2669 2670 2671 2671 2673 2676 2677 2678 2680 2682 2684 2686 2688 2691 2694 2698 2702 2704
2732 2733 2734 2735 2736 2737 2738 2738 2738 2738 2738 2738 2738 2737 2737 2736 2736 2735 2734 2733 2731 2729 2727 2726 2724 2722 2720 2718 2715 2713 2710 2707 2705 2702 2699 2696 2694 2691 2689 2687 2684 2682 2680 2677 2675 2673 2671 2669 2668 2668 2667 2666 2666 2667 2668 2669 2671 2672 2672 2673 2675 2677 2678 2680 2681 2683 2685 2687 2689 2691 2695 2699 2702 2704
2730 2731 2732 2734 2735 2736 2736 2737 2737 2737 2737 2737 2736 2736 2736 2736 2735 2734 2733 2732 2730 2729 2727 2725 2723 2721 2719 2717 2715 2713 2710 2708 2705 2703 2700 2698 2695 2693 2690 2688 2685 2683 2680 2678 2676 2674 2673 2672 2671 2670 2670 2669 2669 2670 2670 2671 2671 2672 2673 2675 2676 2678 2680 2681 2683 2684 2686 2688 2690 2692 2695 2698 2702 2704
2729 2730 2731 2732 2733 2734 2735 2735 2736 2736 2736 2735 2735 2735 2735 2734 2734 2733 2732 2731 2729 2728 2726 2724 2723 2721 2719 2717 2715 2713 2710 2708 2705 2703 2700 2698 2696 2694 2691 2689 2686 2684 2682 2680 2678 2677 2676 2675 2674 2673 2672 2671 2671 2671 2671 2671 2672 2673 2674 2675 2676 2678 2681 2682 2684 2685 2687 2689 2691 2693 2695 2698 2701 2703
2728 2729 2729 2730 2731 2733 2734 2734 2734 2734 2734 2734 2734 2734 2734 2733 2732 2732 2731 2730 2729 2727 2726 2724 2722 2720 2718 2716 2714 2712 2710 2708 2705 2703 2700 2698 2696 2694 2692 2690 2688 2686 2684 2682 2681 2679 2678 2676 2675 2674 2674 2673 2673 2672 2672 2672 2672 2673 2674 2675 2676 2678 2680 2682 2684 2686 2688 2690 2692 2694 2696 2698 2700 2703
2726 2727 2728 2729 2730 2731 2732 2732 2733 2733 2733 2733 2733 2733 2732 2732 2731 2731 2730 2729 2728 2726 2725 2723 2721 2719 2717 2715 2713 2712 2710 2708 2705 2703 2701 2698 2696 2694 2692 2690 2689 2687 2686 2684 2683 2681 2679 2677 2676 2675 2675 2674 2674 2673 2673 2673 2673 2673 2674 2675 2676 2677 2679 2682 2684 2686 2688 2689 2691 2693 2695 2697 2699 2702